Weather History for Starkville, MS

Change the Weather History Date:

Tuesday, April 17, 2012

  Actual Average Record
Temperature  
Mean Temperature 56 °F -  
Max Temperature 60 °F 75 °F 82 °F (2013)
Min Temperature 53 °F 52 °F 41 °F (2014)
Degree Days  
Heating Degree Days 8    
Growing Degree Days 6 (Base 50)    
Moisture  
Dew Point 57 °F    
Average Humidity 96    
Maximum Humidity 100    
Minimum Humidity 88    
Precipitation  
Precipitation 3.14 in - - ()
Sea Level Pressure  
Sea Level Pressure 30.19 in    
Wind  
Wind Speed 5 mph (North)    
Max Wind Speed 20 mph    
Max Gust Speed 26 mph    
Visibility 7 miles    
Events Rain , Thunderstorm    
Averages and records for this station are not official NWS values.
T = Trace of Precipitation, MM = Missing Value Source: NWS Daily Summary

Daily Weather History Graph

Daily Weather History Graph

Search for Another Location

Airport:

Trip Planner

Search our weather history database for the weather conditions in past years. The results will help you decide how hot, cold, wet, or windy it might be!

Date:

Astronomy

Apr. 17, 2012 Rise Set
Actual Time 6:22 AM CDT 7:28 PM CDT
Civil Twilight 5:56 AM CDT 7:53 PM CDT
Nautical Twilight 5:25 AM CDT 8:24 PM CDT
Astronomical Twilight 4:54 AM CDT 8:55 PM CDT
Moon 4:09 AM CDT (4/17) 4:29 PM CDT (4/17)
Length of Visible Light 13h 57m
Length of Day
13h 05m
Waning Crescent, 12% of the Moon is Illuminated
Apr 17
Waning Crescent
Apr 21
New
Apr 29
First Quarter
May 5
Full
May 12
Last Quarter

Hourly Weather History & Observations

Time (CDT) Temp. Dew Point Humidity Pressure Visibility Wind Dir Wind Speed Gust Speed Precip Events Conditions
12:15 AM 60.8 °F 59.0 °F 94% 30.17 in 10.0 mi Calm Calm - N/A   Scattered Clouds
12:35 AM 60.8 °F 59.0 °F 94% 30.17 in 10.0 mi Calm Calm - N/A   Clear
12:55 AM 60.8 °F 59.0 °F 94% 30.17 in 10.0 mi Calm Calm - N/A   Mostly Cloudy
1:15 AM 60.8 °F 59.0 °F 94% 30.16 in 10.0 mi Calm Calm - N/A   Overcast
1:35 AM 60.8 °F 59.0 °F 94% 30.16 in 10.0 mi NW 3.5 mph - N/A   Overcast
1:55 AM 60.8 °F 59.0 °F 94% 30.16 in 10.0 mi Calm Calm - N/A   Overcast
2:15 AM 60.8 °F 59.0 °F 94% 30.16 in 10.0 mi Calm Calm - N/A   Overcast
2:35 AM 60.8 °F 59.0 °F 94% 30.16 in 10.0 mi Calm Calm - N/A   Drizzle
2:55 AM 60.8 °F 59.0 °F 94% 30.16 in 10.0 mi North 3.5 mph - N/A   Drizzle
3:35 AM 60.8 °F 59.0 °F 94% 30.15 in 10.0 mi Calm Calm - N/A   Overcast
3:55 AM 60.8 °F 59.0 °F 94% 30.16 in 4.0 mi North 3.5 mph - 0.05 in Rain Heavy Rain
4:15 AM 60.8 °F 59.0 °F 94% 30.16 in 4.0 mi NW 3.5 mph - 0.13 in Rain Heavy Rain
4:35 AM 60.8 °F 59.0 °F 94% 30.15 in 3.0 mi North 3.5 mph - 0.23 in Rain Heavy Rain
4:55 AM 59.0 °F 59.0 °F 100% 30.16 in 5.0 mi NW 3.5 mph - 0.29 in Rain Rain
5:15 AM 59.0 °F 59.0 °F 100% 30.16 in 2.5 mi Calm Calm - 0.18 in Rain Heavy Rain
5:35 AM 60.8 °F 59.0 °F 94% 30.16 in 4.0 mi North 3.5 mph - 0.25 in Rain Rain
5:55 AM 59.0 °F 59.0 °F 100% 30.16 in 5.0 mi North 4.6 mph - 0.29 in Rain Heavy Rain
6:15 AM 59.0 °F 59.0 °F 100% 30.17 in 5.0 mi NNE 10.4 mph - 0.06 in Rain Rain
6:35 AM 59.0 °F 59.0 °F 100% 30.18 in 1.2 mi North 4.6 mph - 0.35 in Rain Heavy Rain
6:55 AM 59.0 °F 59.0 °F 100% 30.18 in 4.0 mi NNE 9.2 mph - 0.57 in Rain Rain
7:15 AM 59.0 °F 59.0 °F 100% 30.18 in 5.0 mi NNW 4.6 mph - 0.07 in Rain Light Rain
7:35 AM 59.0 °F 59.0 °F 100% 30.20 in 5.0 mi NNW 4.6 mph - 0.09 in Rain Rain
7:55 AM 59.0 °F 57.2 °F 94% 30.19 in 4.0 mi NNE 9.2 mph - 0.24 in Rain Rain
8:15 AM 59.0 °F 57.2 °F 94% 30.18 in 3.0 mi NNE 8.1 mph - 0.09 in Rain Heavy Rain
8:35 AM 59.0 °F 57.2 °F 94% 30.19 in 2.0 mi NNW 3.5 mph 9.2 mph 0.22 in Rain Heavy Rain
8:55 AM 59.0 °F 59.0 °F 100% 30.18 in 7.0 mi NNE 10.4 mph - 0.28 in Rain Light Rain
9:15 AM 59.0 °F 59.0 °F 100% 30.18 in 5.0 mi NNE 6.9 mph - 0.03 in Rain Light Rain
9:35 AM 59.0 °F 59.0 °F 100% 30.18 in 10.0 mi NE 10.4 mph - 0.03 in Rain Rain
9:55 AM 59.0 °F 59.0 °F 100% 30.19 in 3.0 mi NE 9.2 mph - 0.08 in Rain Rain
10:15 AM 59.0 °F 59.0 °F 100% 30.21 in 10.0 mi Calm Calm - 0.01 in Rain , Thunderstorm Rain
10:35 AM 60.8 °F 59.0 °F 94% 30.19 in 3.0 mi NNE 16.1 mph - 0.10 in Rain Rain
10:55 AM 59.0 °F 59.0 °F 100% 30.22 in 2.0 mi North 6.9 mph - 0.26 in Rain Heavy Rain
11:15 AM 59.0 °F 59.0 °F 100% 30.22 in 2.5 mi North 3.5 mph - 0.13 in Rain Heavy Rain
11:35 AM 59.0 °F 59.0 °F 100% 30.22 in 3.0 mi NNE 9.2 mph - 0.26 in Rain Rain
11:55 AM 59.0 °F 59.0 °F 100% 30.21 in 4.0 mi NNE 11.5 mph - 0.38 in Rain Rain
12:15 PM 60.8 °F 59.0 °F 94% 30.22 in 4.0 mi NNE 12.7 mph - 0.08 in Rain Heavy Rain
12:35 PM 59.0 °F 59.0 °F 100% 30.21 in 7.0 mi North 6.9 mph 16.1 mph 0.12 in Rain Rain
12:55 PM 59.0 °F 59.0 °F 100% 30.22 in 4.0 mi NNE 11.5 mph 18.4 mph 0.17 in Rain Heavy Rain
1:15 PM 59.0 °F 59.0 °F 100% 30.22 in 4.0 mi North 11.5 mph 18.4 mph 0.07 in Rain Heavy Rain
1:35 PM 57.2 °F 55.4 °F 94% 30.23 in 2.5 mi NNE 19.6 mph 26.5 mph 0.16 in Rain Heavy Rain
1:55 PM 57.2 °F 55.4 °F 94% 30.25 in 4.0 mi North 9.2 mph 16.1 mph 0.28 in Rain Heavy Rain
2:15 PM 57.2 °F 55.4 °F 94% 30.25 in 5.0 mi North 10.4 mph 18.4 mph 0.06 in Rain Rain
2:35 PM 55.4 °F 55.4 °F 100% 30.23 in 5.0 mi North 8.1 mph 16.1 mph 0.11 in Rain Rain
2:55 PM 55.4 °F 55.4 °F 100% 30.23 in 10.0 mi North 10.4 mph 17.3 mph 0.13 in Rain Rain
3:15 PM 57.2 °F 55.4 °F 94% 30.22 in 10.0 mi North 9.2 mph - 0.01 in Rain , Thunderstorm Rain
3:35 PM 57.2 °F 55.4 °F 94% 30.22 in 10.0 mi NNE 10.4 mph 21.9 mph 0.01 in   Light Drizzle
3:55 PM 57.2 °F 55.4 °F 94% 30.20 in 10.0 mi NNE 10.4 mph 18.4 mph 0.01 in Rain Light Rain
4:15 PM 57.2 °F 55.4 °F 94% 30.19 in 10.0 mi NNE 10.4 mph 18.4 mph N/A   Light Drizzle
4:35 PM 57.2 °F 55.4 °F 94% 30.20 in 10.0 mi North 5.8 mph - N/A Rain Light Rain
4:55 PM 57.2 °F 55.4 °F 94% 30.21 in 7.0 mi North 5.8 mph - 0.02 in Rain Rain
5:35 PM 55.4 °F 53.6 °F 94% 30.20 in 10.0 mi NNE 8.1 mph - 0.03 in Rain Rain
5:55 PM 55.4 °F 53.6 °F 94% 30.20 in 10.0 mi NE 8.1 mph - 0.05 in Rain Light Rain
6:15 PM 55.4 °F 53.6 °F 94% 30.21 in 10.0 mi ENE 3.5 mph - 0.01 in Rain Light Rain
7:15 PM 55.4 °F 53.6 °F 94% 30.18 in 10.0 mi ENE 6.9 mph - 0.02 in Rain Light Rain
7:35 PM 55.4 °F 53.6 °F 94% 30.16 in 10.0 mi East 8.1 mph - 0.03 in Rain Light Rain
8:15 PM 55.4 °F 53.6 °F 94% 30.12 in 10.0 mi East 12.7 mph - N/A   Light Drizzle
8:35 PM 55.4 °F 53.6 °F 94% 30.11 in 10.0 mi East 12.7 mph 18.4 mph N/A   Mostly Cloudy
8:55 PM 55.4 °F 51.8 °F 88% 30.15 in 10.0 mi North 4.6 mph - N/A   Mostly Cloudy
9:15 PM 55.4 °F 53.6 °F 94% 30.17 in 10.0 mi NNW 4.6 mph - N/A   Overcast
9:35 PM 53.6 °F 51.8 °F 94% 30.17 in 10.0 mi NW 5.8 mph - N/A   Scattered Clouds
9:55 PM 53.6 °F 51.8 °F 94% 30.18 in 10.0 mi NNW 4.6 mph - N/A   Scattered Clouds
10:15 PM 53.6 °F 51.8 °F 94% 30.18 in 10.0 mi NNW 4.6 mph - N/A   Scattered Clouds
10:35 PM 53.6 °F 53.6 °F 100% 30.19 in 10.0 mi NW 4.6 mph - N/A   Mostly Cloudy
10:55 PM 53.6 °F 53.6 °F 100% 30.19 in 10.0 mi NW 5.8 mph - N/A   Overcast
11:15 PM 53.6 °F 53.6 °F 100% 30.19 in 10.0 mi NNW 5.8 mph - N/A   Overcast
11:35 PM 53.6 °F 51.8 °F 94% 30.18 in 10.0 mi North 5.8 mph - N/A   Overcast
11:55 PM 53.6 °F 51.8 °F 94% 30.17 in 10.0 mi North 4.6 mph - N/A   Overcast